TimeAKDT,TemperatureF,Dew PointF,Humidity,Sea Level PressureIn,VisibilityMPH,Wind Direction,Wind SpeedMPH,Gust SpeedMPH,PrecipitationIn,Events,Conditions,WindDirDegrees,DateUTC
12:53 AM,5.0,-0.9,76,30.28,10.0,NW,4.6,-,N/A,,Partly Cloudy,320,2013-03-28 08:53:00
1:53 AM,3.9,-7.1,60,30.28,10.0,North,4.6,-,N/A,,Overcast,350,2013-03-28 09:53:00
2:53 AM,1.9,-7.1,66,30.27,10.0,NNW,5.8,-,N/A,,Mostly Cloudy,340,2013-03-28 10:53:00
3:53 AM,1.0,-9.0,63,30.27,10.0,NNE,4.6,-,N/A,,Scattered Clouds,20,2013-03-28 11:53:00
4:53 AM,-0.0,-9.9,63,30.27,10.0,North,4.6,-,N/A,,Overcast,350,2013-03-28 12:53:00
5:53 AM,-0.0,-9.0,66,30.26,10.0,North,4.6,-,N/A,,Overcast,350,2013-03-28 13:53:00
6:53 AM,1.0,-9.0,63,30.25,10.0,North,3.5,-,N/A,,Overcast,10,2013-03-28 14:53:00
7:53 AM,-0.9,-9.9,66,30.26,10.0,North,3.5,-,N/A,,Mostly Cloudy,350,2013-03-28 15:53:00
8:53 AM,1.9,-8.0,63,30.26,10.0,Calm,Calm,-,N/A,,Mostly Cloudy,0,2013-03-28 16:53:00
9:53 AM,6.1,-5.1,60,30.25,10.0,Calm,Calm,-,N/A,,Mostly Cloudy,0,2013-03-28 17:53:00
10:53 AM,12.9,-2.0,51,30.23,10.0,NNW,3.5,-,N/A,,Mostly Cloudy,340,2013-03-28 18:53:00
11:53 AM,18.0,3.0,52,30.21,10.0,NNE,3.5,-,N/A,,Mostly Cloudy,20,2013-03-28 19:53:00
12:53 PM,21.0,5.0,50,30.19,10.0,North,3.5,-,N/A,,Mostly Cloudy,360,2013-03-28 20:53:00
1:53 PM,26.1,7.0,44,30.17,10.0,ESE,4.6,-,N/A,,Mostly Cloudy,110,2013-03-28 21:53:00
2:53 PM,30.0,12.0,47,30.14,10.0,SSE,16.1,25.3,N/A,,Scattered Clouds,150,2013-03-28 22:53:00
3:53 PM,30.0,12.0,47,30.13,10.0,SSE,18.4,27.6,N/A,,Mostly Cloudy,150,2013-03-28 23:53:00
4:53 PM,30.9,12.9,47,30.12,10.0,South,19.6,27.6,N/A,,Mostly Cloudy,170,2013-03-29 00:53:00
5:53 PM,30.0,12.0,47,30.11,10.0,SSE,19.6,27.6,N/A,,Mostly Cloudy,150,2013-03-29 01:53:00
6:53 PM,28.9,12.9,51,30.10,10.0,SSE,16.1,-,N/A,,Overcast,160,2013-03-29 02:53:00
7:53 PM,28.9,14.0,54,30.10,10.0,SSE,18.4,25.3,N/A,,Overcast,150,2013-03-29 03:53:00
8:53 PM,28.0,14.0,56,30.10,10.0,SSE,20.7,27.6,N/A,,Overcast,160,2013-03-29 04:53:00
9:31 PM,28.0,18.0,66,29.97,10.0,SSE,21.9,32.2,N/A,,Overcast,150,2013-03-29 05:31:00
9:53 PM,27.0,19.0,72,30.10,10.0,SSE,19.6,28.8,N/A,,Overcast,160,2013-03-29 05:53:00
10:53 PM,25.0,18.0,75,30.09,10.0,SSE,16.1,-,N/A,,Scattered Clouds,160,2013-03-29 06:53:00
11:53 PM,25.0,18.0,75,30.08,10.0,SSE,17.3,-,N/A,,Partly Cloudy,160,2013-03-29 07:53:00